TimeEDT,TemperatureF,Dew PointF,Humidity,Sea Level PressureIn,VisibilityMPH,Wind Direction,Wind SpeedMPH,Gust SpeedMPH,PrecipitationIn,Events,Conditions,WindDirDegrees,DateUTC
12:51 AM,77.0,71.1,82,30.15,7.0,South,3.5,-,N/A,,Clear,180,2013-09-11 04:51:00
1:51 AM,75.9,71.1,85,30.14,6.0,Calm,Calm,-,N/A,,Haze,0,2013-09-11 05:51:00
2:51 AM,75.9,71.1,85,30.14,7.0,Calm,Calm,-,N/A,,Clear,0,2013-09-11 06:51:00
3:51 AM,75.0,70.0,84,30.13,6.0,Calm,Calm,-,N/A,,Haze,0,2013-09-11 07:51:00
4:51 AM,73.9,70.0,87,30.13,6.0,Calm,Calm,-,N/A,,Partly Cloudy,0,2013-09-11 08:51:00
5:51 AM,73.9,69.1,85,30.14,6.0,SSW,4.6,-,N/A,,Haze,200,2013-09-11 09:51:00
6:51 AM,73.9,69.1,85,30.15,6.0,Calm,Calm,-,N/A,,Haze,0,2013-09-11 10:51:00
7:51 AM,75.0,69.1,82,30.16,6.0,WSW,3.5,-,N/A,,Haze,250,2013-09-11 11:51:00
8:51 AM,75.9,70.0,82,30.17,6.0,SW,4.6,-,N/A,,Haze,230,2013-09-11 12:51:00
9:51 AM,79.0,71.1,77,30.16,6.0,WSW,4.6,-,N/A,,Haze,240,2013-09-11 13:51:00
10:51 AM,82.0,71.1,69,30.16,8.0,WSW,5.8,-,N/A,,Scattered Clouds,250,2013-09-11 14:51:00
11:51 AM,82.9,69.1,63,30.15,8.0,WSW,6.9,-,N/A,,Partly Cloudy,250,2013-09-11 15:51:00
12:51 PM,86.0,70.0,59,30.13,8.0,WSW,6.9,-,N/A,,Partly Cloudy,240,2013-09-11 16:51:00
1:51 PM,88.0,69.1,53,30.09,9.0,SW,8.1,-,N/A,,Mostly Cloudy,230,2013-09-11 17:51:00
2:14 PM,87.8,69.8,55,30.10,9.0,WSW,8.1,-,N/A,Thunderstorm,Thunderstorm,240,2013-09-11 18:14:00
2:51 PM,80.1,66.0,62,30.09,10.0,West,12.7,19.6,0.00,Rain-Thunderstorm,Light Thunderstorms and Rain,280,2013-09-11 18:51:00
3:51 PM,75.0,66.0,73,30.07,10.0,South,9.2,19.6,0.01,Rain-Thunderstorm,Light Thunderstorms and Rain,190,2013-09-11 19:51:00
4:16 PM,73.4,64.4,73,30.08,10.0,Calm,Calm,-,0.00,,Mostly Cloudy,0,2013-09-11 20:16:00
4:51 PM,77.0,64.9,66,30.06,10.0,South,3.5,-,0.00,,Mostly Cloudy,170,2013-09-11 20:51:00
5:51 PM,78.1,66.9,68,30.07,10.0,South,4.6,-,N/A,,Mostly Cloudy,170,2013-09-11 21:51:00
6:51 PM,77.0,66.9,71,30.04,10.0,SSE,5.8,-,N/A,,Mostly Cloudy,150,2013-09-11 22:51:00
7:51 PM,77.0,66.9,71,30.05,10.0,SSW,4.6,-,0.00,Rain,Light Rain,200,2013-09-11 23:51:00
8:51 PM,75.0,68.0,79,30.04,10.0,South,4.6,-,0.00,,Overcast,190,2013-09-12 00:51:00
9:51 PM,73.0,66.0,79,30.07,10.0,South,5.8,-,N/A,,Overcast,180,2013-09-12 01:51:00
10:51 PM,73.9,66.0,76,30.06,10.0,SSW,9.2,-,N/A,,Mostly Cloudy,200,2013-09-12 02:51:00
11:51 PM,73.9,66.9,79,30.03,10.0,SSW,6.9,-,N/A,,Mostly Cloudy,210,2013-09-12 03:51:00